{"data":{"norad_id":65083,"intl_designator":"2025-167F","name":"STARLINK-34247","alt_names":[],"object_type":"PAYLOAD","status":"ACTIVE","operator":null,"country":"US","launch_date":"2025-08-04","launch_site_code":"AFETR","launch_vehicle":null,"mission":null,"orbit_class":"UNKNOWN","rcs_meters":null,"size_class":null,"mass_kg":null,"dimensions":null,"purposes":["comms"],"wikipedia_slug":null,"has_3d_model":false,"image_url":null,"decayed_at":null,"tle_current":{"epoch":"2026-05-24T23:13:28.240608Z","epoch_age_seconds":87954,"freshness":"FRESH","line1":"1 65083U 25167F   26144.96768797  .00006728  00000+0  23905-3 0  9993","line2":"2 65083  53.1583  29.8984 0001045  84.2797 275.8322 15.30201172 45196","mean_motion":15.30201172,"eccentricity":0.0001045,"inclination_deg":53.1583,"raan_deg":29.8984,"arg_perigee_deg":84.2797,"mean_anomaly_deg":275.8322,"bstar":0.00023905,"rev_number":4519,"period_min":94.105273629996,"perigee_km":474.49539511524,"apogee_km":475.92774496638,"semimajor_km":6853.3485700408,"source":"CELESTRAK","updated_at":"2026-05-25T13:38:20.683248Z"}}}